Year,Month,Day,Hour,Minute,Value (Times are PST for insolation in W/m^2)
2007,05,28,00,00,0.00
2007,05,28,00,01,0.00
2007,05,28,00,02,0.00
2007,05,28,00,03,0.00
2007,05,28,00,04,0.00
2007,05,28,00,05,0.00
2007,05,28,00,06,0.00
2007,05,28,00,07,0.00
2007,05,28,00,08,0.00
2007,05,28,00,09,0.00
2007,05,28,00,10,0.00
2007,05,28,00,11,0.00
2007,05,28,00,12,0.00
2007,05,28,00,13,0.00
2007,05,28,00,14,0.00
2007,05,28,00,15,0.00
2007,05,28,00,16,0.00
2007,05,28,00,17,0.00
2007,05,28,00,18,0.00
2007,05,28,00,19,0.00
2007,05,28,00,20,0.00
2007,05,28,00,21,0.00
2007,05,28,00,22,0.00
2007,05,28,00,23,0.00
2007,05,28,00,24,0.00
2007,05,28,00,25,0.00
2007,05,28,00,26,0.00
2007,05,28,00,27,0.00
2007,05,28,00,28,0.00
2007,05,28,00,29,0.00
2007,05,28,00,30,0.00
2007,05,28,00,31,0.00
2007,05,28,00,32,0.00
2007,05,28,00,33,0.00
2007,05,28,00,34,0.00
2007,05,28,00,35,0.00
2007,05,28,00,36,0.00
2007,05,28,00,37,0.00
2007,05,28,00,38,0.00
2007,05,28,00,39,0.00
2007,05,28,00,40,0.00
2007,05,28,00,41,0.00
2007,05,28,00,42,0.00
2007,05,28,00,43,0.00
2007,05,28,00,44,0.00
2007,05,28,00,45,0.00
2007,05,28,00,46,0.00
2007,05,28,00,47,0.00
2007,05,28,00,48,0.00
2007,05,28,00,49,0.00
2007,05,28,00,50,0.00
2007,05,28,00,51,0.00
2007,05,28,00,52,0.00
2007,05,28,00,53,0.00
2007,05,28,00,54,0.00
2007,05,28,00,55,0.00
2007,05,28,00,56,0.00
2007,05,28,00,57,0.00
2007,05,28,00,58,0.00
2007,05,28,00,59,0.00
2007,05,28,01,00,0.00
2007,05,28,01,01,0.00
2007,05,28,01,02,0.00
2007,05,28,01,03,0.00
2007,05,28,01,04,0.00
2007,05,28,01,05,0.00
2007,05,28,01,06,0.00
2007,05,28,01,07,0.00
2007,05,28,01,08,0.00
2007,05,28,01,09,0.00
2007,05,28,01,10,0.00
2007,05,28,01,11,0.00
2007,05,28,01,12,0.00
2007,05,28,01,13,0.00
2007,05,28,01,14,0.00
2007,05,28,01,15,0.00
2007,05,28,01,16,0.00
2007,05,28,01,17,0.00
2007,05,28,01,18,0.00
2007,05,28,01,19,0.00
2007,05,28,01,20,0.00
2007,05,28,01,21,0.00
2007,05,28,01,22,0.00
2007,05,28,01,23,0.00
2007,05,28,01,24,0.00
2007,05,28,01,25,0.00
2007,05,28,01,26,0.00
2007,05,28,01,27,0.00
2007,05,28,01,28,0.00
2007,05,28,01,29,0.00
2007,05,28,01,30,0.00
2007,05,28,01,31,0.00
2007,05,28,01,32,0.00
2007,05,28,01,33,0.00
2007,05,28,01,34,0.00
2007,05,28,01,35,0.00
2007,05,28,01,36,0.00
2007,05,28,01,37,0.00
2007,05,28,01,38,0.00
2007,05,28,01,39,0.00
2007,05,28,01,40,0.00
2007,05,28,01,41,0.00
2007,05,28,01,42,0.00
2007,05,28,01,43,0.00
2007,05,28,01,44,0.00
2007,05,28,01,45,0.00
2007,05,28,01,46,0.00
2007,05,28,01,47,0.00
2007,05,28,01,48,0.00
2007,05,28,01,49,0.00
2007,05,28,01,50,0.00
2007,05,28,01,51,0.00
2007,05,28,01,52,0.00
2007,05,28,01,53,0.00
2007,05,28,01,54,0.00
2007,05,28,01,55,0.00
2007,05,28,01,56,0.00
2007,05,28,01,57,0.00
2007,05,28,01,58,0.00
2007,05,28,01,59,0.00
2007,05,28,02,00,0.00
2007,05,28,02,01,0.00
2007,05,28,02,02,0.00
2007,05,28,02,03,0.00
2007,05,28,02,04,0.00
2007,05,28,02,05,0.00
2007,05,28,02,06,0.00
2007,05,28,02,07,0.00
2007,05,28,02,08,0.00
2007,05,28,02,09,0.00
2007,05,28,02,10,0.00
2007,05,28,02,11,0.00
2007,05,28,02,12,0.00
2007,05,28,02,13,0.00
2007,05,28,02,14,0.00
2007,05,28,02,15,0.00
2007,05,28,02,16,0.00
2007,05,28,02,17,0.00
2007,05,28,02,18,0.00
2007,05,28,02,19,0.00
2007,05,28,02,20,0.00
2007,05,28,02,21,0.00
2007,05,28,02,22,0.00
2007,05,28,02,23,0.00
2007,05,28,02,24,0.00
2007,05,28,02,25,0.00
2007,05,28,02,26,0.00
2007,05,28,02,27,0.00
2007,05,28,02,28,0.00
2007,05,28,02,29,0.00
2007,05,28,02,30,0.00
2007,05,28,02,31,0.00
2007,05,28,02,32,0.00
2007,05,28,02,33,0.00
2007,05,28,02,34,0.00
2007,05,28,02,35,0.00
2007,05,28,02,36,0.00
2007,05,28,02,37,0.00
2007,05,28,02,38,0.00
2007,05,28,02,39,0.00
2007,05,28,02,40,0.00
2007,05,28,02,41,0.00
2007,05,28,02,42,0.00
2007,05,28,02,43,0.00
2007,05,28,02,44,0.00
2007,05,28,02,45,0.00
2007,05,28,02,46,0.00
2007,05,28,02,47,0.00
2007,05,28,02,48,0.00
2007,05,28,02,49,0.00
2007,05,28,02,50,0.00
2007,05,28,02,51,0.00
2007,05,28,02,52,0.00
2007,05,28,02,53,0.00
2007,05,28,02,54,0.00
2007,05,28,02,55,0.00
2007,05,28,02,56,0.00
2007,05,28,02,57,0.00
2007,05,28,02,58,0.00
2007,05,28,02,59,0.00
2007,05,28,03,00,0.00
2007,05,28,03,01,0.00
2007,05,28,03,02,0.00
2007,05,28,03,03,0.00
2007,05,28,03,04,0.00
2007,05,28,03,05,0.00
2007,05,28,03,06,0.00
2007,05,28,03,07,0.00
2007,05,28,03,08,0.00
2007,05,28,03,09,0.00
2007,05,28,03,10,0.00
2007,05,28,03,11,0.00
2007,05,28,03,12,0.00
2007,05,28,03,13,0.00
2007,05,28,03,14,0.00
2007,05,28,03,15,0.00
2007,05,28,03,16,0.00
2007,05,28,03,17,0.00
2007,05,28,03,18,0.00
2007,05,28,03,19,0.00
2007,05,28,03,20,0.00
2007,05,28,03,21,0.00
2007,05,28,03,22,0.00
2007,05,28,03,23,0.00
2007,05,28,03,24,0.00
2007,05,28,03,25,0.00
2007,05,28,03,26,0.00
2007,05,28,03,27,0.00
2007,05,28,03,28,0.00
2007,05,28,03,29,0.00
2007,05,28,03,30,0.00
2007,05,28,03,31,0.00
2007,05,28,03,32,0.00
2007,05,28,03,33,0.00
2007,05,28,03,34,0.00
2007,05,28,03,35,0.00
2007,05,28,03,36,0.00
2007,05,28,03,37,0.00
2007,05,28,03,38,0.00
2007,05,28,03,39,0.00
2007,05,28,03,40,0.00
2007,05,28,03,41,0.00
2007,05,28,03,42,0.00
2007,05,28,03,43,0.00
2007,05,28,03,44,0.00
2007,05,28,03,45,0.00
2007,05,28,03,46,0.00
2007,05,28,03,47,0.00
2007,05,28,03,48,0.00
2007,05,28,03,49,0.00
2007,05,28,03,50,0.00
2007,05,28,03,51,0.00
2007,05,28,03,52,0.00
2007,05,28,03,53,0.00
2007,05,28,03,54,0.00
2007,05,28,03,55,0.00
2007,05,28,03,56,0.00
2007,05,28,03,57,0.00
2007,05,28,03,58,0.00
2007,05,28,03,59,0.00
2007,05,28,04,00,0.00
2007,05,28,04,01,0.00
2007,05,28,04,02,0.00
2007,05,28,04,03,0.00
2007,05,28,04,04,0.00
2007,05,28,04,05,0.00
2007,05,28,04,06,0.00
2007,05,28,04,07,0.00
2007,05,28,04,08,0.00
2007,05,28,04,09,0.00
2007,05,28,04,10,0.00
2007,05,28,04,11,0.00
2007,05,28,04,12,0.00
2007,05,28,04,13,0.00
2007,05,28,04,14,0.00
2007,05,28,04,15,0.00
2007,05,28,04,16,0.00
2007,05,28,04,17,0.00
2007,05,28,04,18,0.00
2007,05,28,04,19,0.00
2007,05,28,04,20,0.00
2007,05,28,04,21,0.00
2007,05,28,04,22,0.00
2007,05,28,04,23,0.00
2007,05,28,04,24,0.00
2007,05,28,04,25,0.00
2007,05,28,04,26,0.00
2007,05,28,04,27,0.00
2007,05,28,04,28,0.00
2007,05,28,04,29,0.00
2007,05,28,04,30,0.00
2007,05,28,04,31,0.00
2007,05,28,04,32,0.00
2007,05,28,04,33,0.00
2007,05,28,04,34,0.00
2007,05,28,04,35,0.00
2007,05,28,04,36,0.00
2007,05,28,04,37,0.00
2007,05,28,04,38,0.00
2007,05,28,04,39,0.00
2007,05,28,04,40,0.00
2007,05,28,04,41,0.00
2007,05,28,04,42,0.00
2007,05,28,04,43,0.00
2007,05,28,04,44,0.00
2007,05,28,04,45,0.00
2007,05,28,04,46,0.00
2007,05,28,04,47,0.00
2007,05,28,04,48,0.00
2007,05,28,04,49,0.00
2007,05,28,04,50,0.00
2007,05,28,04,51,0.00
2007,05,28,04,52,0.00
2007,05,28,04,53,0.00
2007,05,28,04,54,0.00
2007,05,28,04,55,0.00
2007,05,28,04,56,0.00
2007,05,28,04,57,0.00
2007,05,28,04,58,0.00
2007,05,28,04,59,0.00
2007,05,28,05,00,0.00
2007,05,28,05,01,0.00
2007,05,28,05,02,0.00
2007,05,28,05,03,0.00
2007,05,28,05,04,0.00
2007,05,28,05,05,0.00
2007,05,28,05,06,0.00
2007,05,28,05,07,0.00
2007,05,28,05,08,0.00
2007,05,28,05,09,0.00
2007,05,28,05,10,0.00
2007,05,28,05,11,0.00
2007,05,28,05,12,0.00
2007,05,28,05,13,0.00
2007,05,28,05,14,0.00
2007,05,28,05,15,0.00
2007,05,28,05,16,0.00
2007,05,28,05,17,0.00
2007,05,28,05,18,0.00
2007,05,28,05,19,0.00
2007,05,28,05,20,3.20
2007,05,28,05,21,5.00
2007,05,28,05,22,5.00
2007,05,28,05,23,5.00
2007,05,28,05,24,5.00
2007,05,28,05,25,6.30
2007,05,28,05,26,7.00
2007,05,28,05,27,7.00
2007,05,28,05,28,7.00
2007,05,28,05,29,8.30
2007,05,28,05,30,9.00
2007,05,28,05,31,9.00
2007,05,28,05,32,10.30
2007,05,28,05,33,11.00
2007,05,28,05,34,11.00
2007,05,28,05,35,11.00
2007,05,28,05,36,11.60
2007,05,28,05,37,12.00
2007,05,28,05,38,12.00
2007,05,28,05,39,13.30
2007,05,28,05,40,14.00
2007,05,28,05,41,14.00
2007,05,28,05,42,14.00
2007,05,28,05,43,15.30
2007,05,28,05,44,16.00
2007,05,28,05,45,16.00
2007,05,28,05,46,17.30
2007,05,28,05,47,18.00
2007,05,28,05,48,18.00
2007,05,28,05,49,18.60
2007,05,28,05,50,19.00
2007,05,28,05,51,19.00
2007,05,28,05,52,20.30
2007,05,28,05,53,21.00
2007,05,28,05,54,21.00
2007,05,28,05,55,23.60
2007,05,28,05,56,25.60
2007,05,28,05,57,27.30
2007,05,28,05,58,30.60
2007,05,28,05,59,32.70
2007,05,28,06,00,34.30
2007,05,28,06,01,36.30
2007,05,28,06,02,38.30
2007,05,28,06,03,39.70
2007,05,28,06,04,41.30
2007,05,28,06,05,42.00
2007,05,28,06,06,44.60
2007,05,28,06,07,48.00
2007,05,28,06,08,50.30
2007,05,28,06,09,52.30
2007,05,28,06,10,53.70
2007,05,28,06,11,55.30
2007,05,28,06,12,57.30
2007,05,28,06,13,58.00
2007,05,28,06,14,58.00
2007,05,28,06,15,61.20
2007,05,28,06,16,63.00
2007,05,28,06,17,65.60
2007,05,28,06,18,67.00
2007,05,28,06,19,68.40
2007,05,28,06,20,69.70
2007,05,28,06,21,71.30
2007,05,28,06,22,73.40
2007,05,28,06,23,75.30
2007,05,28,06,24,76.70
2007,05,28,06,25,78.30
2007,05,28,06,26,80.30
2007,05,28,06,27,82.40
2007,05,28,06,28,83.70
2007,05,28,06,29,85.30
2007,05,28,06,30,87.40
2007,05,28,06,31,89.30
2007,05,28,06,32,90.70
2007,05,28,06,33,93.60
2007,05,28,06,34,96.30
2007,05,28,06,35,98.90
2007,05,28,06,36,101.30
2007,05,28,06,37,103.90
2007,05,28,06,38,106.30
2007,05,28,06,39,109.60
2007,05,28,06,40,112.30
2007,05,28,06,41,114.90
2007,05,28,06,42,118.60
2007,05,28,06,43,120.70
2007,05,28,06,44,123.70
2007,05,28,06,45,126.90
2007,05,28,06,46,129.30
2007,05,28,06,47,132.60
2007,05,28,06,48,135.90
2007,05,28,06,49,139.60
2007,05,28,06,50,142.90
2007,05,28,06,51,145.30
2007,05,28,06,52,147.90
2007,05,28,06,53,151.60
2007,05,28,06,54,154.30
2007,05,28,06,55,156.90
2007,05,28,06,56,158.00
2007,05,28,06,57,162.60
2007,05,28,06,58,167.70
2007,05,28,06,59,170.90
2007,05,28,07,00,174.60
2007,05,28,07,01,177.90
2007,05,28,07,02,181.60
2007,05,28,07,03,184.90
2007,05,28,07,04,186.00
2007,05,28,07,05,190.40
2007,05,28,07,06,194.30
2007,05,28,07,07,197.60
2007,05,28,07,08,200.90
2007,05,28,07,09,202.00
2007,05,28,07,10,205.40
2007,05,28,07,11,209.60
2007,05,28,07,12,212.90
2007,05,28,07,13,216.60
2007,05,28,07,14,219.30
2007,05,28,07,15,221.90
2007,05,28,07,16,224.30
2007,05,28,07,17,226.30
2007,05,28,07,18,228.90
2007,05,28,07,19,232.60
2007,05,28,07,20,235.30
2007,05,28,07,21,238.10
2007,05,28,07,22,240.30
2007,05,28,07,23,242.90
2007,05,28,07,24,244.00
2007,05,28,07,25,247.90
2007,05,28,07,26,251.90
2007,05,28,07,27,255.60
2007,05,28,07,28,257.60
2007,05,28,07,29,260.60
2007,05,28,07,30,263.30
2007,05,28,07,31,266.00
2007,05,28,07,32,268.30
2007,05,28,07,33,271.00
2007,05,28,07,34,273.30
2007,05,28,07,35,276.60
2007,05,28,07,36,280.00
2007,05,28,07,37,282.30
2007,05,28,07,38,285.60
2007,05,28,07,39,289.00
2007,05,28,07,40,291.30
2007,05,28,07,41,294.00
2007,05,28,07,42,297.60
2007,05,28,07,43,300.30
2007,05,28,07,44,303.00
2007,05,28,07,45,306.50
2007,05,28,07,46,308.60
2007,05,28,07,47,311.60
2007,05,28,07,48,314.30
2007,05,28,07,49,317.00
2007,05,28,07,50,316.00
2007,05,28,07,51,320.20
2007,05,28,07,52,324.30
2007,05,28,07,53,327.50
2007,05,28,07,54,331.00
2007,05,28,07,55,333.30
2007,05,28,07,56,336.60
2007,05,28,07,57,340.00
2007,05,28,07,58,341.00
2007,05,28,07,59,344.20
2007,05,28,08,00,348.60
2007,05,28,08,01,351.30
2007,05,28,08,02,354.00
2007,05,28,08,03,356.30
2007,05,28,08,04,357.00
2007,05,28,08,05,361.50
2007,05,28,08,06,364.00
2007,05,28,08,07,367.20
2007,05,28,08,08,370.30
2007,05,28,08,09,373.00
2007,05,28,08,10,375.30
2007,05,28,08,11,377.30
2007,05,28,08,12,380.00
2007,05,28,08,13,382.30
2007,05,28,08,14,386.20
2007,05,28,08,15,389.30
2007,05,28,08,16,392.60
2007,05,28,08,17,395.30
2007,05,28,08,18,398.00
2007,05,28,08,19,400.30
2007,05,28,08,20,403.00
2007,05,28,08,21,406.60
2007,05,28,08,22,409.90
2007,05,28,08,23,412.30
2007,05,28,08,24,414.30
2007,05,28,08,25,417.00
2007,05,28,08,26,420.60
2007,05,28,08,27,423.30
2007,05,28,08,28,427.20
2007,05,28,08,29,429.00
2007,05,28,08,30,431.00
2007,05,28,08,31,464.50
2007,05,28,08,32,485.20
2007,05,28,08,33,457.10
2007,05,28,08,34,443.60
2007,05,28,08,35,447.00
2007,05,28,08,36,450.60
2007,05,28,08,37,453.30
2007,05,28,08,38,454.00
2007,05,28,08,39,458.50
2007,05,28,08,40,461.60
2007,05,28,08,41,464.60
2007,05,28,08,42,466.00
2007,05,28,08,43,469.20
2007,05,28,08,44,472.30
2007,05,28,08,45,475.00
2007,05,28,08,46,477.30
2007,05,28,08,47,479.30
2007,05,28,08,48,482.00
2007,05,28,08,49,483.00
2007,05,28,08,50,486.90
2007,05,28,08,51,491.00
2007,05,28,08,52,494.60
2007,05,28,08,53,496.60
2007,05,28,08,54,499.60
2007,05,28,08,55,502.30
2007,05,28,08,56,505.00
2007,05,28,08,57,508.60
2007,05,28,08,58,512.00
2007,05,28,08,59,514.30
2007,05,28,09,00,516.30
2007,05,28,09,01,520.20
2007,05,28,09,02,523.30
2007,05,28,09,03,526.00
2007,05,28,09,04,529.60
2007,05,28,09,05,532.30
2007,05,28,09,06,535.00
2007,05,28,09,07,538.60
2007,05,28,09,08,540.70
2007,05,28,09,09,543.60
2007,05,28,09,10,548.20
2007,05,28,09,11,551.30
2007,05,28,09,12,553.90
2007,05,28,09,13,557.40
2007,05,28,09,14,560.20
2007,05,28,09,15,564.40
2007,05,28,09,16,568.60
2007,05,28,09,17,573.20
2007,05,28,09,18,577.00
2007,05,28,09,19,581.90
2007,05,28,09,20,587.20
2007,05,28,09,21,592.20
2007,05,28,09,22,595.30
2007,05,28,09,23,598.00
2007,05,28,09,24,599.00
2007,05,28,09,25,601.60
2007,05,28,09,26,605.00
2007,05,28,09,27,608.60
2007,05,28,09,28,611.30
2007,05,28,09,29,612.00
2007,05,28,09,30,612.70
2007,05,28,09,31,615.60
2007,05,28,09,32,618.30
2007,05,28,09,33,616.40
2007,05,28,09,34,620.70
2007,05,28,09,35,626.60
2007,05,28,09,36,629.80
2007,05,28,09,37,632.30
2007,05,28,09,38,634.30
2007,05,28,09,39,635.70
2007,05,28,09,40,636.00
2007,05,28,09,41,641.40
2007,05,28,09,42,648.20
2007,05,28,09,43,655.80
2007,05,28,09,44,666.80
2007,05,28,09,45,679.50
2007,05,28,09,46,689.70
2007,05,28,09,47,695.00
2007,05,28,09,48,696.00
2007,05,28,09,49,698.60
2007,05,28,09,50,703.20
2007,05,28,09,51,710.80
2007,05,28,09,52,717.20
2007,05,28,09,53,722.20
2007,05,28,09,54,719.50
2007,05,28,09,55,728.70
2007,05,28,09,56,735.00
2007,05,28,09,57,738.20
2007,05,28,09,58,741.30
2007,05,28,09,59,746.50
2007,05,28,10,00,756.80
2007,05,28,10,01,761.00
2007,05,28,10,02,768.80
2007,05,28,10,03,772.30
2007,05,28,10,04,766.30
2007,05,28,10,05,760.40
2007,05,28,10,06,757.10
2007,05,28,10,07,756.00
2007,05,28,10,08,758.00
2007,05,28,10,09,762.90
2007,05,28,10,10,768.20
2007,05,28,10,11,765.50
2007,05,28,10,12,759.80
2007,05,28,10,13,752.20
2007,05,28,10,14,750.30
2007,05,28,10,15,751.70
2007,05,28,10,16,765.70
2007,05,28,10,17,790.10
2007,05,28,10,18,800.00
2007,05,28,10,19,800.00
2007,05,28,10,20,800.00
2007,05,28,10,21,800.00
2007,05,28,10,22,661.50
2007,05,28,10,23,587.00
2007,05,28,10,24,587.00
2007,05,28,10,25,564.20
2007,05,28,10,26,505.20
2007,05,28,10,27,480.00
2007,05,28,10,28,480.00
2007,05,28,10,29,729.00
2007,05,28,10,30,849.30
2007,05,28,10,31,815.50
2007,05,28,10,32,842.20
2007,05,28,10,33,865.00
2007,05,28,10,34,731.10
2007,05,28,10,35,659.00
2007,05,28,10,36,659.00
2007,05,28,10,37,404.20
2007,05,28,10,38,261.10
2007,05,28,10,39,256.00
2007,05,28,10,40,266.00
2007,05,28,10,41,272.00
2007,05,28,10,42,272.00
2007,05,28,10,43,272.00
2007,05,28,10,44,272.00
2007,05,28,10,45,272.00
2007,05,28,10,46,262.20
2007,05,28,10,47,270.60
2007,05,28,10,48,278.00
2007,05,28,10,49,278.00
2007,05,28,10,50,278.00
2007,05,28,10,51,278.00
2007,05,28,10,52,278.00
2007,05,28,10,53,278.00
2007,05,28,10,54,275.40
2007,05,28,10,55,274.00
2007,05,28,10,56,274.00
2007,05,28,10,57,637.30
2007,05,28,10,58,796.60
2007,05,28,10,59,777.00
2007,05,28,11,00,867.30
2007,05,28,11,01,916.00
2007,05,28,11,02,916.00
2007,05,28,11,03,953.70
2007,05,28,11,04,979.80
2007,05,28,11,05,983.00
2007,05,28,11,06,983.00
2007,05,28,11,07,983.00
2007,05,28,11,08,983.00
2007,05,28,11,09,983.00
2007,05,28,11,10,666.20
2007,05,28,11,11,514.80
2007,05,28,11,12,519.80
2007,05,28,11,13,583.20
2007,05,28,11,14,631.20
2007,05,28,11,15,666.00
2007,05,28,11,16,680.00
2007,05,28,11,17,628.70
2007,05,28,11,18,543.80
2007,05,28,11,19,537.00
2007,05,28,11,20,551.30
2007,05,28,11,21,585.20
2007,05,28,11,22,603.00
2007,05,28,11,23,605.00
2007,05,28,11,24,563.10
2007,05,28,11,25,540.00
2007,05,28,11,26,852.00
2007,05,28,11,27,1020.00
2007,05,28,11,28,1020.00
2007,05,28,11,29,713.20
2007,05,28,11,30,579.20
2007,05,28,11,31,617.50
2007,05,28,11,32,576.30
2007,05,28,11,33,548.00
2007,05,28,11,34,616.90
2007,05,28,11,35,601.60
2007,05,28,11,36,609.40
2007,05,28,11,37,656.50
2007,05,28,11,38,668.00
2007,05,28,11,39,668.00
2007,05,28,11,40,618.60
2007,05,28,11,41,642.70
2007,05,28,11,42,670.00
2007,05,28,11,43,670.00
2007,05,28,11,44,729.20
2007,05,28,11,45,761.00
2007,05,28,11,46,761.00
2007,05,28,11,47,809.10
2007,05,28,11,48,835.00
2007,05,28,11,49,959.80
2007,05,28,11,50,1027.00
2007,05,28,11,51,1027.00
2007,05,28,11,52,1027.00
2007,05,28,11,53,1027.00
2007,05,28,11,54,828.10
2007,05,28,11,55,721.00
2007,05,28,11,56,721.00
2007,05,28,11,57,721.00
2007,05,28,11,58,721.00
2007,05,28,11,59,721.00
2007,05,28,12,00,721.00
2007,05,28,12,01,721.00
2007,05,28,12,02,721.00
2007,05,28,12,03,574.50
2007,05,28,12,04,494.20
2007,05,28,12,05,544.50
2007,05,28,12,06,560.20
2007,05,28,12,07,555.00
2007,05,28,12,08,1011.30
2007,05,28,12,09,1252.40
2007,05,28,12,10,1250.00
2007,05,28,12,11,1250.00
2007,05,28,12,12,1250.00
2007,05,28,12,13,784.00
2007,05,28,12,14,568.10
2007,05,28,12,15,587.00
2007,05,28,12,16,587.00
2007,05,28,12,17,550.60
2007,05,28,12,18,581.00
2007,05,28,12,19,554.70
2007,05,28,12,20,547.50
2007,05,28,12,21,578.50
2007,05,28,12,22,585.80
2007,05,28,12,23,630.80
2007,05,28,12,24,656.00
2007,05,28,12,25,580.60
2007,05,28,12,26,538.70
2007,05,28,12,27,554.90
2007,05,28,12,28,564.00
2007,05,28,12,29,681.70
2007,05,28,12,30,745.00
2007,05,28,12,31,745.00
2007,05,28,12,32,745.00
2007,05,28,12,33,745.00
2007,05,28,12,34,745.00
2007,05,28,12,35,745.00
2007,05,28,12,36,745.00
2007,05,28,12,37,745.00
2007,05,28,12,38,745.00
2007,05,28,12,39,745.00
2007,05,28,12,40,745.00
2007,05,28,12,41,923.70
2007,05,28,12,42,1055.90
2007,05,28,12,43,1071.70
2007,05,28,12,44,1085.00
2007,05,28,12,45,1101.10
2007,05,28,12,46,1106.00
2007,05,28,12,47,1106.00
2007,05,28,12,48,1106.00
2007,05,28,12,49,1106.00
2007,05,28,12,50,1106.00
2007,05,28,12,51,1106.00
2007,05,28,12,52,727.70
2007,05,28,12,53,581.20
2007,05,28,12,54,664.70
2007,05,28,12,55,693.00
2007,05,28,12,56,693.00
2007,05,28,12,57,693.00
2007,05,28,12,58,975.10
2007,05,28,12,59,1127.00
2007,05,28,13,00,1127.00
2007,05,28,13,01,1127.00
2007,05,28,13,02,1020.40
2007,05,28,13,03,952.60
2007,05,28,13,04,943.80
2007,05,28,13,05,936.20
2007,05,28,13,06,931.00
2007,05,28,13,07,927.40
2007,05,28,13,08,924.00
2007,05,28,13,09,921.70
2007,05,28,13,10,919.70
2007,05,28,13,11,921.40
2007,05,28,13,12,925.00
2007,05,28,13,13,931.80
2007,05,28,13,14,925.90
2007,05,28,13,15,914.50
2007,05,28,13,16,911.00
2007,05,28,13,17,911.70
2007,05,28,13,18,912.00
2007,05,28,13,19,913.30
2007,05,28,13,20,917.20
2007,05,28,13,21,918.30
2007,05,28,13,22,920.00
2007,05,28,13,23,936.00
2007,05,28,13,24,960.90
2007,05,28,13,25,988.20
2007,05,28,13,26,998.00
2007,05,28,13,27,691.20
2007,05,28,13,28,526.00
2007,05,28,13,29,526.00
2007,05,28,13,30,526.00
2007,05,28,13,31,526.00
2007,05,28,13,32,716.50
2007,05,28,13,33,819.00
2007,05,28,13,34,891.00
2007,05,28,13,35,924.60
2007,05,28,13,36,917.00
2007,05,28,13,37,916.00
2007,05,28,13,38,917.30
2007,05,28,13,39,912.20
2007,05,28,13,40,911.00
2007,05,28,13,41,910.00
2007,05,28,13,42,919.40
2007,05,28,13,43,925.70
2007,05,28,13,44,931.80
2007,05,28,13,45,930.50
2007,05,28,13,46,930.60
2007,05,28,13,47,929.40
2007,05,28,13,48,879.90
2007,05,28,13,49,902.10
2007,05,28,13,50,935.80
2007,05,28,13,51,941.30
2007,05,28,13,52,942.00
2007,05,28,13,53,942.00
2007,05,28,13,54,940.10
2007,05,28,13,55,941.00
2007,05,28,13,56,942.00
2007,05,28,13,57,931.60
2007,05,28,13,58,911.70
2007,05,28,13,59,908.50
2007,05,28,14,00,890.20
2007,05,28,14,01,907.60
2007,05,28,14,02,923.00
2007,05,28,14,03,923.00
2007,05,28,14,04,923.00
2007,05,28,14,05,897.70
2007,05,28,14,06,876.20
2007,05,28,14,07,869.40
2007,05,28,14,08,884.20
2007,05,28,14,09,891.70
2007,05,28,14,10,889.00
2007,05,28,14,11,888.00
2007,05,28,14,12,890.00
2007,05,28,14,13,889.00
2007,05,28,14,14,888.00
2007,05,28,14,15,888.70
2007,05,28,14,16,889.00
2007,05,28,14,17,879.90
2007,05,28,14,18,861.30
2007,05,28,14,19,862.50
2007,05,28,14,20,853.20
2007,05,28,14,21,849.80
2007,05,28,14,22,860.80
2007,05,28,14,23,857.20
2007,05,28,14,24,857.50
2007,05,28,14,25,864.50
2007,05,28,14,26,869.00
2007,05,28,14,27,873.20
2007,05,28,14,28,871.80
2007,05,28,14,29,860.90
2007,05,28,14,30,848.20
2007,05,28,14,31,850.50
2007,05,28,14,32,846.20
2007,05,28,14,33,831.60
2007,05,28,14,34,850.00
2007,05,28,14,35,865.60
2007,05,28,14,36,869.00
2007,05,28,14,37,865.50
2007,05,28,14,38,866.20
2007,05,28,14,39,867.30
2007,05,28,14,40,865.70
2007,05,28,14,41,860.50
2007,05,28,14,42,860.00
2007,05,28,14,43,860.30
2007,05,28,14,44,858.70
2007,05,28,14,45,853.50
2007,05,28,14,46,851.00
2007,05,28,14,47,854.20
2007,05,28,14,48,856.00
2007,05,28,14,49,854.70
2007,05,28,14,50,854.00
2007,05,28,14,51,848.80
2007,05,28,14,52,848.00
2007,05,28,14,53,849.00
2007,05,28,14,54,847.70
2007,05,28,14,55,845.00
2007,05,28,14,56,844.00
2007,05,28,14,57,844.00
2007,05,28,14,58,845.30
2007,05,28,14,59,843.40
2007,05,28,15,00,838.80
2007,05,28,15,01,837.00
2007,05,28,15,02,834.40
2007,05,28,15,03,834.30
2007,05,28,15,04,833.70
2007,05,28,15,05,831.70
2007,05,28,15,06,830.30
2007,05,28,15,07,826.10
2007,05,28,15,08,825.30
2007,05,28,15,09,827.30
2007,05,28,15,10,825.40
2007,05,28,15,11,823.30
2007,05,28,15,12,823.00
2007,05,28,15,13,823.00
2007,05,28,15,14,820.40
2007,05,28,15,15,817.00
2007,05,28,15,16,813.40
2007,05,28,15,17,812.00
2007,05,28,15,18,810.70
2007,05,28,15,19,809.30
2007,05,28,15,20,807.70
2007,05,28,15,21,803.80
2007,05,28,15,22,800.70
2007,05,28,15,23,802.00
2007,05,28,15,24,802.30
2007,05,28,15,25,802.00
2007,05,28,15,26,799.40
2007,05,28,15,27,796.00
2007,05,28,15,28,793.70
2007,05,28,15,29,793.00
2007,05,28,15,30,791.70
2007,05,28,15,31,792.30
2007,05,28,15,32,780.00
2007,05,28,15,33,781.50
2007,05,28,15,34,786.00
2007,05,28,15,35,787.30
2007,05,28,15,36,785.40
2007,05,28,15,37,785.30
2007,05,28,15,38,782.10
2007,05,28,15,39,776.80
2007,05,28,15,40,771.80
2007,05,28,15,41,768.70
2007,05,28,15,42,766.00
2007,05,28,15,43,768.20
2007,05,28,15,44,768.70
2007,05,28,15,45,768.00
2007,05,28,15,46,766.70
2007,05,28,15,47,765.30
2007,05,28,15,48,761.10
2007,05,28,15,49,760.30
2007,05,28,15,50,753.20
2007,05,28,15,51,743.20
2007,05,28,15,52,740.00
2007,05,28,15,53,747.20
2007,05,28,15,54,751.70
2007,05,28,15,55,750.00
2007,05,28,15,56,749.00
2007,05,28,15,57,747.70
2007,05,28,15,58,745.00
2007,05,28,15,59,742.70
2007,05,28,16,00,738.80
2007,05,28,16,01,737.00
2007,05,28,16,02,734.40
2007,05,28,16,03,731.70
2007,05,28,16,04,731.00
2007,05,28,16,05,731.00
2007,05,28,16,06,729.70
2007,05,28,16,07,728.30
2007,05,28,16,08,725.40
2007,05,28,16,09,722.70
2007,05,28,16,10,718.80
2007,05,28,16,11,717.00
2007,05,28,16,12,717.00
2007,05,28,16,13,715.00
2007,05,28,16,14,710.10
2007,05,28,16,15,706.00
2007,05,28,16,16,703.70
2007,05,28,16,17,701.70
2007,05,28,16,18,701.00
2007,05,28,16,19,699.00
2007,05,28,16,20,696.70
2007,05,28,16,21,694.00
2007,05,28,16,22,693.70
2007,05,28,16,23,690.80
2007,05,28,16,24,687.70
2007,05,28,16,25,686.30
2007,05,28,16,26,686.00
2007,05,28,16,27,681.50
2007,05,28,16,28,679.00
2007,05,28,16,29,677.70
2007,05,28,16,30,675.70
2007,05,28,16,31,673.70
2007,05,28,16,32,671.80
2007,05,28,16,33,669.00
2007,05,28,16,34,666.70
2007,05,28,16,35,664.00
2007,05,28,16,36,659.20
2007,05,28,16,37,656.40
2007,05,28,16,38,654.70
2007,05,28,16,39,650.80
2007,05,28,16,40,647.70
2007,05,28,16,41,644.40
2007,05,28,16,42,642.30
2007,05,28,16,43,639.40
2007,05,28,16,44,638.00
2007,05,28,16,45,638.00
2007,05,28,16,46,636.00
2007,05,28,16,47,635.60
2007,05,28,16,48,634.10
2007,05,28,16,49,631.70
2007,05,28,16,50,629.70
2007,05,28,16,51,628.40
2007,05,28,16,52,625.60
2007,05,28,16,53,624.00
2007,05,28,16,54,621.00
2007,05,28,16,55,617.80
2007,05,28,16,56,614.50
2007,05,28,16,57,611.00
2007,05,28,16,58,607.50
2007,05,28,16,59,605.40
2007,05,28,17,00,605.00
2007,05,28,17,01,605.00
2007,05,28,17,02,602.40
2007,05,28,17,03,597.80
2007,05,28,17,04,593.40
2007,05,28,17,05,590.00